When you browse on this site, cookies collect data to enhance your experience and personalize the content and advertising you see.
Visit our Privacy Policy to learn more. By continuing to use the site, you agree to this use of cookies and data.

Hourly Weather Beersheba

Today, 3 July, Friday

Time Temperature Precipitation Wind Pressure Humidity
00:00 +23°C° 0 mm 1 mps 731 mmHg 65%
01:00 +20°C° 0 mm 0 mps 731 mmHg 66%
02:00 +20°C° 0 mm 0 mps 730 mmHg 68%
03:00 +20°C° 0 mm 0 mps 731 mmHg 66%
04:00 +19°C° 0 mm 0 mps 731 mmHg 65%
05:00 +19°C° 0 mm 0 mps 731 mmHg 63%
06:00 +24°C° 0 mm 1 mps 731 mmHg 53%
07:00 +27°C° 0 mm 1 mps 731 mmHg 43%
08:00 +30°C° 0 mm 2 mps 732 mmHg 33%
09:00 +33°C° 0 mm 3 mps 732 mmHg 29%
10:00 +35°C° 0 mm 3 mps 732 mmHg 25%
11:00 +37°C° 0 mm 4 mps 732 mmHg 22%
12:00 +37°C° 0 mm 5 mps 732 mmHg 23%
13:00 +39°C° 0 mm 6 mps 731 mmHg 24%
14:00 +39°C° 0 mm 7 mps 731 mmHg 25%
15:00 +36°C° 0 mm 7 mps 731 mmHg 29%
16:00 +35°C° 0 mm 8 mps 730 mmHg 33%
17:00 +33°C° 0 mm 8 mps 730 mmHg 37%
18:00 +30°C° 0 mm 6 mps 731 mmHg 48%
19:00 +28°C° 0 mm 5 mps 731 mmHg 59%
20:00 +26°C° 0 mm 4 mps 731 mmHg 70%
21:00 +25°C° 0 mm 3 mps 731 mmHg 73%
22:00 +25°C° 0 mm 2 mps 732 mmHg 75%
23:00 +24°C° 0 mm 2 mps 732 mmHg 77%

Tomorrow, 4 July, Saturday

Time Temperature Precipitation Wind Pressure Humidity
00:00 +24°C° 0 mm 1 mps 732 mmHg 78%
01:00 +23°C° 0 mm 1 mps 732 mmHg 78%
02:00 +23°C° 0 mm 1 mps 732 mmHg 79%
03:00 +23°C° 0 mm 1 mps 732 mmHg 80%
04:00 +23°C° 0 mm 1 mps 732 mmHg 81%
05:00 +22°C° 0 mm 1 mps 732 mmHg 82%
06:00 +25°C° 0 mm 2 mps 732 mmHg 71%
07:00 +27°C° 0 mm 2 mps 732 mmHg 61%
08:00 +29°C° 0 mm 2 mps 732 mmHg 50%
09:00 +31°C° 0 mm 3 mps 732 mmHg 43%
10:00 +34°C° 0 mm 4 mps 732 mmHg 35%
11:00 +36°C° 0 mm 5 mps 732 mmHg 28%
12:00 +38°C° 0 mm 6 mps 732 mmHg 28%
13:00 +38°C° 0 mm 7 mps 732 mmHg 28%
14:00 +38°C° 0 mm 7 mps 731 mmHg 28%
15:00 +35°C° 0 mm 7 mps 731 mmHg 31%
16:00 +34°C° 0 mm 7 mps 731 mmHg 34%
17:00 +33°C° 0 mm 7 mps 731 mmHg 37%
18:00 +30°C° 0 mm 6 mps 731 mmHg 47%
19:00 +28°C° 0 mm 4 mps 731 mmHg 57%
20:00 +26°C° 0 mm 3 mps 731 mmHg 67%
21:00 +25°C° 0 mm 2 mps 731 mmHg 67%
22:00 +24°C° 0 mm 2 mps 731 mmHg 68%
23:00 +24°C° 0 mm 1 mps 731 mmHg 69%

Day after tomorrow, 5 July, Sunday

Time Temperature Precipitation Wind Pressure Humidity
00:00 +23°C° 0 mm 1 mps 731 mmHg 71%
01:00 +23°C° 0 mm 2 mps 731 mmHg 74%
02:00 +22°C° 0 mm 3 mps 731 mmHg 77%
03:00 +23°C° 0 mm 2 mps 731 mmHg 82%
04:00 +21°C° 0 mm 2 mps 730 mmHg 87%
05:00 +21°C° 0 mm 2 mps 730 mmHg 93%
06:00 +24°C° 0 mm 2 mps 730 mmHg 81%
07:00 +26°C° 0 mm 2 mps 731 mmHg 69%
08:00 +28°C° 0 mm 3 mps 731 mmHg 57%
09:00 +30°C° 0 mm 4 mps 731 mmHg 48%
10:00 +33°C° 0 mm 4 mps 730 mmHg 39%
11:00 +35°C° 0 mm 5 mps 730 mmHg 30%
12:00 +36°C° 0 mm 6 mps 730 mmHg 30%
13:00 +36°C° 0 mm 6 mps 730 mmHg 29%
14:00 +36°C° 0 mm 7 mps 729 mmHg 29%
15:00 +35°C° 0 mm 6 mps 729 mmHg 32%
16:00 +34°C° 0 mm 6 mps 729 mmHg 34%
17:00 +33°C° 0 mm 6 mps 729 mmHg 37%
18:00 +30°C° 0 mm 5 mps 729 mmHg 49%
19:00 +28°C° 0 mm 4 mps 729 mmHg 62%
20:00 +26°C° 0 mm 3 mps 730 mmHg 74%
21:00 +25°C° 0 mm 3 mps 730 mmHg 81%
22:00 +24°C° 0 mm 3 mps 730 mmHg 88%
23:00 +24°C° 0 mm 3 mps 730 mmHg 95%

6 July, Monday

Time Temperature Precipitation Wind Pressure Humidity
00:00 +24°C° 0 mm 3 mps 729 mmHg 95%
01:00 +24°C° 0 mm 3 mps 729 mmHg 95%
02:00 +23°C° 0 mm 4 mps 729 mmHg 95%
03:00 +23°C° 0 mm 4 mps 729 mmHg 94%
04:00 +24°C° 0 mm 3 mps 729 mmHg 93%
05:00 +24°C° 0 mm 3 mps 729 mmHg 91%
06:00 +25°C° 0 mm 4 mps 729 mmHg 84%
07:00 +26°C° 0 mm 4 mps 729 mmHg 77%
08:00 +27°C° 0 mm 4 mps 729 mmHg 69%
09:00 +29°C° 0 mm 5 mps 729 mmHg 57%
10:00 +33°C° 0 mm 6 mps 729 mmHg 45%
11:00 +35°C° 0 mm 7 mps 730 mmHg 33%
12:00 +35°C° 0 mm 7 mps 729 mmHg 33%
13:00 +35°C° 0 mm 8 mps 729 mmHg 32%
14:00 +35°C° 0 mm 9 mps 729 mmHg 32%
15:00 +34°C° 0 mm 8 mps 729 mmHg 37%
16:00 +33°C° 0 mm 8 mps 729 mmHg 42%
17:00 +32°C° 0 mm 7 mps 729 mmHg 47%
18:00 +29°C° 0 mm 6 mps 729 mmHg 56%
19:00 +27°C° 0 mm 5 mps 730 mmHg 66%
20:00 +26°C° 0 mm 3 mps 730 mmHg 76%
21:00 +25°C° 0 mm 3 mps 730 mmHg 81%
22:00 +24°C° 0 mm 3 mps 730 mmHg 86%
23:00 +24°C° 0 mm 3 mps 730 mmHg 91%

7 July, Tuesday

Time Temperature Precipitation Wind Pressure Humidity
00:00 +24°C° 0 mm 3 mps 730 mmHg 92%
01:00 +24°C° 0 mm 3 mps 730 mmHg 93%
02:00 +22°C° 0 mm 3 mps 730 mmHg 94%
03:00 +24°C° 0 mm 3 mps 730 mmHg 93%
04:00 +24°C° 0 mm 3 mps 730 mmHg 92%
05:00 +24°C° 0 mm 3 mps 730 mmHg 90%
06:00 +25°C° 0 mm 3 mps 731 mmHg 81%
07:00 +27°C° 0 mm 2 mps 731 mmHg 72%
08:00 +28°C° 0 mm 2 mps 731 mmHg 62%
09:00 +30°C° 0 mm 4 mps 731 mmHg 51%
10:00 +34°C° 0 mm 5 mps 731 mmHg 39%
11:00 +36°C° 0 mm 7 mps 732 mmHg 28%
12:00 +37°C° 0 mm 8 mps 731 mmHg 28%
13:00 +37°C° 0 mm 8 mps 731 mmHg 28%
14:00 +37°C° 0 mm 9 mps 731 mmHg 29%
15:00 +35°C° 0 mm 8 mps 731 mmHg 32%
16:00 +34°C° 0 mm 8 mps 731 mmHg 34%
17:00 +33°C° 0 mm 8 mps 731 mmHg 37%
18:00 +30°C° 0 mm 6 mps 731 mmHg 48%
19:00 +28°C° 0 mm 5 mps 732 mmHg 58%
20:00 +26°C° 0 mm 3 mps 732 mmHg 68%
21:00 +25°C° 0 mm 3 mps 732 mmHg 69%
22:00 +24°C° 0 mm 2 mps 732 mmHg 70%
23:00 +24°C° 0 mm 1 mps 732 mmHg 71%

8 July, Wednesday

Time Temperature Precipitation Wind Pressure Humidity
00:00 +23°C° 0 mm 1 mps 731 mmHg 75%
01:00 +23°C° 0 mm 1 mps 731 mmHg 80%
02:00 +20°C° 0 mm 0 mps 731 mmHg 84%
03:00 +22°C° 0 mm 1 mps 731 mmHg 86%
04:00 +22°C° 0 mm 1 mps 732 mmHg 89%
05:00 +22°C° 0 mm 1 mps 732 mmHg 91%
06:00 +24°C° 0 mm 1 mps 732 mmHg 79%
07:00 +26°C° 0 mm 1 mps 732 mmHg 66%
08:00 +28°C° 0 mm 1 mps 732 mmHg 54%
09:00 +31°C° 0 mm 3 mps 732 mmHg 45%
10:00 +34°C° 0 mm 4 mps 732 mmHg 36%
11:00 +36°C° 0 mm 5 mps 733 mmHg 28%
12:00 +36°C° 0 mm 6 mps 732 mmHg 28%
13:00 +36°C° 0 mm 6 mps 732 mmHg 28%
14:00 +36°C° 0 mm 7 mps 732 mmHg 28%
15:00 +35°C° 0 mm 7 mps 732 mmHg 33%
16:00 +34°C° 0 mm 7 mps 732 mmHg 38%
17:00 +32°C° 0 mm 7 mps 731 mmHg 42%
18:00 +29°C° 0 mm 6 mps 732 mmHg 51%
19:00 +28°C° 0 mm 5 mps 732 mmHg 59%
20:00 +26°C° 0 mm 4 mps 732 mmHg 68%
21:00 +25°C° 0 mm 3 mps 732 mmHg 73%
22:00 +25°C° 0 mm 2 mps 732 mmHg 79%
23:00 +24°C° 0 mm 2 mps 732 mmHg 84%
Show more